AirNav   Air Wisconsin Up To $57,000 Bonus
 
 660 users online  

CA84 Torrey Pines Gliderport
San Diego, California, USA

GOING TO SAN DIEGO?


FAA INFORMATION EFFECTIVE 12 SEPTEMBER 2019

Location

FAA Identifier: CA84
Lat/Long: 32-53-23.0000N 117-14-49.0000W
32-53.383333N 117-14.816667W
32.8897222,-117.2469444
(estimated)
Elevation: 372 ft. / 113 m (estimated)
Variation: 13E (1985)
From city: 11 miles NW of SAN DIEGO, CA
Time zone: UTC -7 (UTC -8 during Standard Time)
Zip code: 92037

Gliderport Operations

Gliderport use: Private use. Permission required prior to landing
Activation date: 11/1961
Control tower: no
ARTCC: LOS ANGELES CENTER
FSS: SAN DIEGO FLIGHT SERVICE STATION
Attendance: UNATNDD
Wind indicator: no
Segmented circle: no

Gliderport Communications

WX ASOS at MYF (7 nm SE): 126.9 (858-576-4337)
WX ASOS at SAN (10 nm S): PHONE 619-296-8934
WX AWOS-3P at SEE (14 nm E): 125.45 (619-449-1228)
WX ASOS at CRQ (14 nm N): PHONE 760-930-0864
WX ASOS at RNM (19 nm NE): 132.025 (760-789-0736)

Nearby radio navigation aids

VOR radial/distance  VOR name  Freq  Var
MZBr335/6.5MISSION BAY VORTAC117.8015E
PGYr307/21.5POGGI VORTAC116.4514E
OCNr143/22.7OCEANSIDE VORTAC115.3015E
TIJr311/25.7TIJUANA VOR/DME116.5014E
JLIr231/36.5JULIAN VORTAC114.0015E

Gliderport Services

Airframe service: NONE
Powerplant service: NONE

Runway Information

Runway 9/27

Dimensions: 1500 x 30 ft. / 457 x 9 m
Surface: asphalt
RUNWAY 9  RUNWAY 27
Traffic pattern: leftleft
Obstructions: nonetrees, 100 ft. from runway

Gliderport Ownership and Management from official FAA records

Ownership: Publicly-owned
Owner: CITY OF SAN DIEGO
Manager: JIM FROST
4740 HARBINSON AVE
LA MESA, CA 91941
Phone 619-461-9614
WORK PHONE 619-535-9505 EXT 1585

Additional Remarks

GLIDER PORT IS LEASED FM CITY TO THE ASSOCD GLIDER CLUB OF SOUTHERN CALIF FOR STUDENT TRAINING & RIDGE SOARING.
ALL ACFT ARE TRAILERED GLIDERS.
ROLLING RWY .6 PERCENT GRADIENT.
EXTENSIVE HANG GLIDER OPERATIONS ON WEEKENDS AND WEEKDAYS.
FOR CD CTC LOS ANGELES ARTCC AT 661-575-2079.

Instrument Procedures

There are no published instrument procedures at CA84.

Some nearby airports with instrument procedures:

KNKX - Miramar MCAS (Joe Foss Field) Airport (5 nm E)
KMYF - Montgomery-Gibbs Executive Airport (7 nm SE)
KSAN - San Diego International Airport (10 nm S)
KNZY - North Island Naval Air Station (Halsey Field) (12 nm S)
KSEE - Gillespie Field Airport (14 nm E)
KCRQ - Mc Clellan-Palomar Airport (14 nm N)
KRNM - Ramona Airport (19 nm NE)
 
Loc | Ops | Rwys | IFR | FBO | Links
Com | Nav | Svcs | Stats | Notes
Area around CA84 (Torrey Pines Gliderport)
 
Road maps at: MapQuest Bing Google
 
Aerial photo
WARNING: Photo may not be current or correct
Aerial photo of CA84 (Torrey Pines Gliderport)
Photo by Doug Fronius
Photo taken 13-Mar-2004
from a 1942 Schweizer TG-2 sailplane.

Do you have a better or more recent aerial photo of Torrey Pines Gliderport that you would like to share? If so, please send us your photo.

 
Sectional chart

 
Airport distance calculator
Flying to Torrey Pines Gliderport? Find the distance to fly.

From to CA84

Sunrise and sunset
Times for 20-Sep-2019
 Local
(UTC-7)
 Zulu
(UTC)
Morning civil twilight06:1213:12
Sunrise06:3713:37
Sunset18:4801:48
Evening civil twilight19:1302:13

Current date and time
Zulu (UTC)  21-Sep-2019 03:39:55
Local (UTC-7)  20-Sep-2019 20:39:55
 
METAR
KNKX 
6nm E 
210255Z 29006KT 10SM CLR 21/16 A2986 RMK AO2 SLP104 T02060161 53004
KMYF 
7nm SE 
210253Z 31006KT 10SM CLR 20/16 A2986 RMK AO2 SLP107 T02000161 53005
KSAN 
10nm S 
210251Z 30005KT 10SM FEW025 21/17 A2987 RMK AO2 SLP113 T02060172 53003
KNZY 
11nm S 
210252Z 31006KT 10SM FEW022 21/16 A2985 RMK AO2 SLP106 T02060161 53004
KCRQ 
15nm N 
210253Z 00000KT 10SM CLR 21/17 A2985 RMK AO2 SLP104 T02110167 53003
KSEE 
15nm E 
210247Z 27006KT 10SM SKC 21/16 A2985
KRNM 
19nm NE 
210253Z AUTO 28005KT 10SM CLR 17/13 A2987 RMK AO2 SLP107 T01720133 53006
TAF
KNKX 
6nm E 
2021/2121 28008KT 9999 SKC QNH2980INS BECMG 2103/2105 VRB05KT 9999 SCT015 QNH2982INS BECMG 2107/2109 VRB05KT 9999 BKN010 QNH2984INS FM211830 27006KT 9999 FEW015 QNH2979INS T28/2021Z T17/2112Z
KSAN 
10nm S 
202024Z 2020/2124 28008KT P6SM FEW025 FM210200 VRB04KT P6SM FEW010 FM210900 VRB03KT P6SM BKN010 FM211600 VRB04KT P6SM SCT012 FM211900 28009KT P6SM FEW015
KNZY 
11nm S 
2023/2123 28009KT 9999 FEW025 QNH2980INS FM210300 VRB06KT 9999 SCT015 QNH2983INS TEMPO 2103/2106 BKN015 TEMPO 2110/2116 8000 BR BKN010 FM211800 29009KT 9999 FEW025 FEW250 QNH2984INS T17/2113Z T24/2121Z FS30022
KCRQ 
15nm N 
201720Z 2018/2118 26008KT P6SM SKC FM210200 VRB04KT P6SM FEW010 FM210800 VRB03KT P6SM BKN008 FM211600 VRB04KT P6SM SCT010
NOTAMs
Click for the latest NOTAMs
NOTAMs are issued by the DoD/FAA and will open in a separate window not controlled by AirNav.

 

 
 

Would you like to see your business listed on this page?

 If your business provides an interesting product or service to pilots, flight crews, aircraft, or users of the Torrey Pines Gliderport, you should consider listing it here.  To start the listing process, click on the button below
 
Add a business
 

Other Pages about Torrey Pines Gliderport

www.agcsc.org/torrey_pines_info.html
 
Update a link
 
Copyright © AirNav, LLC. All rights reserved. Privacy Policy  Contact